Location: Township of Marena
(38.1747°N, 99.6798°W)
Time: 03:33:17
(UTC+00:00)

FENGYUN 3A - Pass Details

Date: 26 October 2020
Orbit: 824 x 835 km, 98.4° (Epoch: 27 November)

Event Time Altitude Azimuth Distance (km) Brightness Sun altitude
Rises 11:46:38 0° 6° (N) 3,392 6.9 -14.8°
Reaches altitude 10° 11:49:04 10° 0° (N) 2,454 6.1 -14.3°
Maximum altitude 11:54:14 46° 289° (WNW) 1,113 3.9 -13.3°
Drops below altitude 10° 11:59:22 10° 217° (SW) 2,439 5.8 -12.3°
Sets 12:01:48 0° 212° (SSW) 3,368 6.6 -11.9°
